Temperature
17 17 17 17 14 12 13 14 15 16 16 16 16 16 14 13 14 14 12 13 13 13 13 13 12 13 13 13 13 13 13 13 13 13 13 13 13 13 13 13 13 14 14 14 14 14 14 14 14
16 17 17 16 12 13 13 14 15 15 16 16 16 15 13 12 13 12 12 12 13 13 12 12 12 13 13 13 13 13 12 13 13 13 13 13 13 13 13 13 13 13 14 14 14 13 14 14 14
16 16 17 12 12 13 14 15 14 15 17 16 14 13 12 12 12 12 12 12 12 12 12 12 12 12 13 12 12 12 12 12 12 12 12 12 13 13 13 13 13 13 13 13 13 13 13 13 13
16 16 15 12 13 13 14 15 15 15 16 16 14 11 11 12 12 12 12 12 12 12 12 12 12 12 12 12 12 12 12 12 12 12 12 12 12 12 12 12 13 13 13 13 13 13 13 13 13
16 16 12 11 12 13 13 15 16 15 15 15 13 11 11 12 12 12 12 12 12 12 12 12 12 12 12 12 12 12 12 12 12 12 12 12 12 12 12 12 12 12 12 12 12 12 12 12 12
15 12 11 12 13 13 14 16 15 14 14 14 13 11 10 11 11 12 12 12 12 11 11 11 11 11 12 11 11 11 12 11 11 11 11 12 12 12 12 12 12 12 12 12 12 12 12 12 12
14 10 11 12 13 13 14 16 15 13 13 14 14 10 10 10 11 11 11 11 11 11 11 11 11 11 11 11 11 11 11 11 11 11 11 11 11 11 12 12 11 11 11 11 11 12 11 12 12
15 11 12 12 13 13 15 15 15 14 13 14 14 11 10 11 10 11 11 10 10 10 10 10 10 10 11 11 11 11 11 11 11 11 11 11 11 11 11 11 11 11 11 11 11 11 11 11 12
14 10 11 12 13 13 14 14 14 14 14 13 13 13 13 12 10 10 10 10 10 10 10 10 10 10 10 10 10 10 10 10 11 11 11 11 11 11 11 11 11 11 11 11 11 11 11 11 11
13 10 11 12 13 13 14 14 14 13 12 11 12 12 12 11 11 10 10 10 10 10 10 10 10 10 10 10 10 10 10 10 10 10 10 10 10 10 10 10 10 10 10 10 11 10 10 11 11
11 10 11 12 14 14 13 13 13 13 11 11 12 12 11 11 10 10 10 10 10 10 9 9 9 9 9 9 9 9 9 9 10 10 10 10 10 10 10 10 10 10 10 10 10 10 10 10 10
10 11 12 12 13 13 13 13 12 12 13 14 14 13 12 11 10 10 10 10 9 9 9 9 9 9 9 9 9 9 9 9 9 9 9 9 9 10 10 10 9 9 10 10 10 10 10 10 10
10 10 11 12 12 12 12 11 11 12 13 13 13 12 11 11 11 10 10 9 9 9 9 9 8 8 8 8 8 8 8 8 8 9 9 9 9 9 9 9 9 9 9 9 9 9 9 9 9
10 10 11 11 11 11 11 10 10 11 12 12 12 11 11 11 11 10 9 9 9 9 8 8 8 8 8 8 8 8 8 8 8 8 8 8 8 8 8 8 8 8 8 8 8 8 9 9 9
11 10 10 10 10 10 10 9 9 11 11 11 11 11 11 10 10 10 10 9 9 8 8 8 8 8 7 7 7 7 7 7 7 7 7 7 7 8 8 8 8 8 8 8 8 8 8 8 8
10 9 9 9 10 10 10 9 9 11 10 10 10 10 10 10 10 10 9 9 9 8 8 7 7 7 7 7 7 7 7 7 7 7 7 7 7 7 7 7 7 7 7 7 7 8 8 8 7
8 8 8 9 9 9 9 8 9 10 10 9 9 9 9 9 9 9 9 9 8 8 8 7 7 7 7 7 6 6 6 6 6 6 6 6 6 6 6 6 6 7 7 7 7 7 7 7 7
8 7 8 8 9 8 8 8 8 9 9 9 9 9 9 9 9 9 9 8 8 8 7 7 6 6 6 6 6 6 6 6 6 6 6 6 6 6 6 6 6 6 6 6 6 6 6 6 6
8 8 8 8 9 8 8 8 8 8 8 8 8 8 8 9 9 9 8 8 7 7 7 6 6 6 6 5 5 5 5 5 5 5 5 5 5 5 5 5 5 5 5 6 6 6 6 5 5
8 8 7 8 8 8 7 7 7 7 7 8 8 8 8 8 8 8 8 7 7 6 6 6 6 5 5 5 5 5 5 5 5 4 4 5 5 5 5 5 5 5 5 5 5 5 5 5 5
8 7 7 7 8 8 7 7 7 7 7 8 8 8 8 8 7 7 7 7 6 6 6 5 5 5 5 5 4 4 4 4 4 4 4 4 4 4 4 4 4 4 4 4 5 5 5 5 4
7 8 7 7 6 6 7 6 6 6 6 6 6 7 7 7 7 7 6 6 6 6 5 5 5 4 4 4 4 4 4 4 4 4 4 4 4 4 4 4 4 4 4 4 4 4 4 4 4
7 7 7 7 6 5 5 5 6 6 6 6 6 6 6 6 6 6 6 6 6 6 5 5 4 4 4 4 3 3 3 3 3 3 3 3 3 3 3 3 3 3 3 3 3 3 3 3 3
7 7 6 5 5 5 5 5 5 5 6 6 5 6 6 6 6 6 6 6 5 5 5 4 4 4 3 3 3 3 3 3 3 3 2 2 3 3 3 3 3 3 3 3 3 3 3 3 3
6 6 6 5 5 5 5 5 5 5 5 5 5 5 5 5 5 5 5 5 4 4 4 3 3 3 3 3 3 2 2 2 2 2 2 2 2 2 2 2 2 2 2 2 2 2 2 2 2
5 6 5 5 5 5 5 5 5 4 4 5 5 5 5 4 4 4 4 4 4 4 3 3 3 3 3 2 2 2 2 2 2 2 2 2 2 2 2 2 2 2 2 2 1 1 2 1 1
5 5 5 4 4 4 4 4 4 4 3 3 3 3 3 4 4 4 4 3 3 3 3 3 2 2 2 2 2 1 1 1 1 1 1 1 1 1 1 1 1 1 1 1 1 1 1 1 1
5 4 4 4 4 4 4 4 4 3 3 2 2 2 2 3 3 3 3 3 3 3 2 2 2 2 2 2 2 1 1 1 1 1 1 1 1 1 1 1 1 1 0 0 0 0 0 0 0
4 4 4 4 4 4 4 4 3 3 2 2 1 1 1 2 2 2 2 2 2 2 2 1 1 1 1 1 1 1 1 0 0 0 0 0 0 0 0 0 0 0 -0 -0 -0 -0 -0 -0 -0
4 3 3 3 3 3 3 3 2 1 1 1 0 0 1 1 1 2 2 2 1 1 1 1 1 1 1 1 1 0 0 0 -0 -0 -0 -0 -0 -0 -0 -1 -1 -1 -1 -1 -1 -1 -1 -1 -1
Wind_Speed
4 3 3 4 5 4 3 5 3 1 1 0 2 7 8 6 4 5 3 6 8 7 8 10 11 12 13 13 12 12 12 13 13 14 14 13 13 14 14 14 14 14 14 13 13 13 13 13 13
2 2 5 5 5 2 5 5 5 5 5 4 4 6 7 4 3 7 5 7 10 9 10 11 12 13 13 13 13 13 13 13 14 14 14 14 14 14 14 14 14 14 14 13 13 13 13 13 13
1 2 4 4 4 7 6 4 6 3 2 3 4 5 4 5 4 5 5 10 10 9 10 12 14 13 13 13 13 13 13 13 14 14 14 14 14 14 14 14 13 13 13 13 13 13 13 13 13
3 4 4 3 6 6 6 5 4 4 1 3 6 6 3 1 4 5 9 11 11 9 10 12 14 14 13 13 13 13 13 13 14 13 13 14 13 13 13 13 13 13 13 13 13 13 13 13 13
4 4 3 2 6 5 5 5 4 4 3 3 6 6 3 2 4 9 11 11 11 9 10 12 14 13 13 13 13 13 13 13 13 13 13 13 12 13 13 12 12 12 13 13 13 13 13 13 13
3 4 4 7 8 5 4 5 4 3 3 3 6 7 3 1 7 9 10 10 11 10 10 12 13 13 13 12 12 13 13 13 13 13 12 12 12 12 12 12 12 12 12 13 13 14 14 14 14
5 4 6 7 6 6 6 4 5 5 4 5 7 8 3 3 6 9 10 9 9 10 10 9 11 12 12 12 12 12 12 12 12 12 12 12 11 11 11 11 11 11 11 12 13 14 14 14 14
5 5 4 5 7 7 5 3 3 6 5 2 6 10 7 7 8 9 10 9 9 8 8 8 10 10 10 10 11 12 12 12 11 11 12 11 11 11 11 11 11 11 11 11 12 13 13 14 14
4 3 7 8 8 6 4 4 2 2 4 3 2 3 6 13 12 12 9 7 8 7 6 7 8 8 9 9 10 11 11 11 11 10 11 10 10 10 10 10 10 10 11 11 11 12 12 13 14
4 7 10 6 6 5 4 5 5 4 3 2 3 4 10 14 14 14 13 12 10 9 7 6 7 8 8 8 9 9 9 9 10 10 10 10 10 9 9 10 10 10 10 11 11 11 11 12 11
5 8 7 5 4 3 3 3 4 7 5 7 9 11 14 13 13 13 12 11 10 9 8 7 7 8 8 6 7 7 7 8 9 9 10 10 9 9 8 8 8 9 9 10 10 10 10 10 10
4 5 4 4 3 2 3 3 3 6 8 8 12 17 17 16 16 15 14 11 10 9 8 7 7 7 7 7 6 6 6 6 6 8 9 9 7 7 6 6 7 8 8 8 8 9 9 10 10
6 4 4 4 3 3 3 4 4 5 5 6 11 16 17 17 15 12 11 10 10 10 9 8 7 7 7 6 5 5 5 6 7 8 8 8 7 5 5 5 6 6 7 7 7 7 8 8 9
4 4 4 5 5 4 5 5 4 7 5 8 12 14 15 16 15 11 11 11 12 11 10 9 8 8 8 5 5 5 6 7 7 7 7 8 8 6 5 4 5 5 6 6 6 6 7 6 7
2 2 5 6 6 5 3 8 9 8 7 9 11 13 13 13 13 14 14 13 13 12 11 10 9 8 8 7 6 6 6 7 6 6 8 8 8 7 6 4 3 4 5 7 7 7 7 5 6
1 2 6 7 7 6 7 13 9 8 10 10 11 11 11 12 13 13 13 12 11 11 11 10 9 8 8 6 6 6 6 6 6 7 7 8 8 8 6 4 3 4 6 6 5 4 4 4 3
2 6 8 7 7 6 9 11 8 7 10 12 12 11 11 11 11 11 12 12 12 12 12 11 9 9 8 6 6 6 6 5 5 6 6 7 8 8 7 4 4 5 5 4 4 3 3 3 3
7 7 7 8 6 7 9 11 8 8 10 11 11 11 11 12 13 12 11 11 11 10 10 10 10 9 8 6 5 4 4 3 4 5 6 7 7 7 7 5 5 5 4 2 3 3 3 3 2
7 7 8 8 5 7 11 13 11 8 9 10 10 11 11 12 10 9 10 9 10 10 10 10 10 9 8 6 6 5 4 3 2 3 5 6 7 7 6 5 4 4 3 2 3 3 4 3 2
8 8 8 6 4 6 9 12 10 9 9 10 11 11 11 9 7 9 9 9 10 11 11 11 10 9 9 7 5 3 4 3 2 2 4 6 6 7 6 5 4 4 3 3 2 3 2 1 2
10 10 8 6 3 3 3 8 8 6 5 5 7 8 9 10 11 10 10 11 10 11 11 10 10 9 8 6 5 4 3 2 2 2 2 3 6 6 6 5 5 4 4 4 3 3 3 2 1
11 7 7 6 3 5 5 6 7 6 5 6 7 6 7 7 8 9 10 10 11 10 10 10 9 9 8 7 7 8 6 4 4 4 3 2 5 5 6 6 5 4 4 4 4 2 2 3 1
6 4 6 6 6 4 4 5 7 4 6 8 7 7 7 7 8 9 10 11 10 9 9 9 9 8 8 8 8 8 6 4 3 3 3 3 2 4 5 6 5 4 3 4 3 2 2 2 2
3 1 0 1 2 6 8 7 7 5 8 6 6 6 6 7 7 7 8 8 8 7 8 8 8 8 8 8 8 8 8 6 6 5 5 3 2 2 4 5 4 4 4 4 3 3 3 2 2
2 3 0 2 3 7 5 6 7 4 4 6 7 6 5 6 6 6 7 7 8 8 8 8 9 8 7 7 7 7 7 8 8 7 6 5 3 2 3 3 4 4 4 4 4 3 3 3 3
5 6 5 5 5 3 2 7 5 2 1 2 3 3 3 4 6 7 7 8 8 8 8 8 9 8 7 7 7 6 6 5 5 6 6 6 4 4 4 4 4 5 5 5 4 3 2 2 2
4 5 4 3 1 2 5 4 4 1 2 2 1 2 2 2 4 6 6 7 7 7 8 9 8 7 7 7 6 6 6 5 5 5 4 4 3 3 4 4 4 4 5 5 4 3 3 2 2
2 4 3 4 3 4 4 4 4 3 3 1 0 1 1 1 2 4 5 5 6 6 6 6 7 7 6 6 6 5 6 6 5 5 5 4 4 3 4 4 4 4 4 4 4 3 2 3 2
3 2 3 3 3 4 4 5 2 4 3 3 2 1 1 1 2 3 3 4 4 4 4 5 5 5 5 5 5 5 5 5 5 5 5 5 4 4 5 4 4 4 4 4 4 3 3 3 2
4 4 4 4 4 3 3 5 3 1 1 1 1 2 2 1 1 2 3 3 3 4 4 4 5 5 6 6 5 5 4 4 5 5 5 5 5 4 4 4 4 4 3 3 4 4 3 4 3
Wind_Direction
318 17 74 61 61 61 226 246 228 234 163 153 87 101 111 114 136 152 135 130 123 127 128 127 121 114 108 104 101 97 94 91 88 85 81 80 79 76 75 72 72 72 71 71 70 70 70 71 73
350 60 61 67 108 179 251 239 225 229 187 148 90 91 92 89 81 116 130 137 127 124 123 125 122 115 109 105 102 100 97 94 90 86 83 80 78 77 75 72 71 70 70 70 69 69 70 71 72
357 84 92 94 150 191 212 220 207 218 183 150 92 61 101 129 132 146 151 137 121 118 121 127 122 116 111 107 104 101 98 96 93 89 84 81 79 77 78 75 72 69 69 70 68 68 69 72 73
77 58 66 109 211 219 202 202 184 164 125 102 120 92 76 73 161 148 134 128 121 116 119 127 122 116 111 108 106 103 99 97 94 91 88 85 82 79 79 76 74 72 69 69 68 66 66 69 71
65 92 104 215 230 238 225 215 191 178 169 137 125 122 113 350 110 121 129 128 127 118 117 124 122 117 113 109 107 105 102 99 95 91 89 86 83 81 78 78 76 75 73 69 68 65 66 68 71
75 90 145 216 229 238 240 216 196 189 178 146 126 126 150 147 120 127 128 127 124 123 118 125 124 120 115 111 108 106 105 102 98 94 90 88 85 82 79 78 77 75 74 72 71 69 67 68 71
131 135 190 204 216 235 233 195 183 185 189 187 147 130 153 189 144 130 124 120 119 119 114 112 116 118 116 113 110 108 105 103 101 98 94 90 86 84 81 78 78 78 77 76 73 70 67 69 73
145 139 196 207 206 229 216 180 188 177 190 158 135 148 178 190 149 125 119 118 119 115 112 111 111 113 114 115 114 110 106 103 101 100 96 90 88 85 82 77 78 80 80 79 76 72 70 68 71
120 143 211 209 201 218 201 186 210 154 128 89 71 154 166 146 138 129 125 121 128 130 124 116 110 109 111 114 115 112 109 105 101 100 97 88 84 84 80 78 77 79 80 77 77 76 71 67 68
140 199 218 214 201 199 203 197 187 144 139 128 74 79 127 142 147 149 153 154 153 153 148 132 122 117 114 115 112 109 107 103 99 99 97 91 87 84 82 80 77 77 77 76 74 71 69 65 66
172 204 214 229 221 196 195 205 187 158 195 196 175 157 151 156 159 162 165 164 162 159 152 146 134 129 121 113 112 107 106 102 99 101 102 98 89 83 79 76 67 68 70 69 67 64 63 66 70
195 231 213 231 224 202 202 197 203 202 208 189 170 159 160 167 173 174 173 169 161 159 157 152 140 134 129 125 123 117 111 109 107 109 110 105 93 82 78 74 70 69 73 71 68 68 65 67 71
227 238 231 229 229 225 219 226 224 233 212 154 148 156 169 175 180 180 172 166 163 164 163 160 148 142 137 129 128 124 122 123 123 121 119 117 107 95 88 81 77 72 76 77 75 72 71 69 69
219 225 238 236 237 233 223 244 228 233 182 154 159 171 180 183 181 175 173 176 175 172 169 163 158 150 143 138 135 133 130 129 127 127 130 128 122 114 104 87 81 76 79 83 84 83 81 74 76
198 234 268 243 225 217 197 259 232 217 170 169 178 182 184 188 183 183 184 183 180 175 169 167 163 154 151 149 148 141 138 134 130 133 135 134 131 127 117 101 87 86 90 89 86 82 80 74 72
159 213 251 245 207 202 187 246 238 208 183 191 192 190 190 193 192 190 185 182 177 171 169 169 166 160 157 151 147 144 142 135 133 136 138 139 140 137 125 113 103 106 100 94 88 78 76 65 62
214 228 239 252 211 189 199 241 237 207 192 200 202 196 195 195 196 194 187 182 177 173 170 169 166 163 158 147 140 139 138 134 136 137 138 141 143 143 133 126 122 120 104 92 94 74 86 81 70
213 219 233 232 218 194 216 240 240 216 203 207 205 200 199 199 201 192 185 178 173 170 167 166 164 161 151 139 128 122 118 123 129 134 139 142 144 144 137 129 126 122 110 88 92 90 77 90 87
211 217 236 241 224 206 227 243 242 227 216 216 211 206 204 206 199 182 175 167 163 164 166 168 166 165 158 158 158 159 166 165 152 139 144 146 146 144 139 133 130 126 126 124 120 111 96 73 80
235 241 247 264 236 220 238 251 246 228 218 214 207 204 202 198 184 177 171 168 169 172 173 172 171 169 169 171 169 168 160 164 161 148 146 150 151 151 148 144 148 141 133 130 127 122 118 95 69
238 230 233 243 279 255 247 267 247 240 222 210 205 202 200 193 186 179 176 175 173 176 177 176 177 173 170 160 145 135 117 107 142 171 175 164 162 161 158 157 154 155 154 161 164 154 136 150 38
243 228 223 224 218 244 201 256 254 225 230 226 221 209 201 191 184 178 176 178 180 182 178 174 173 172 170 161 165 166 172 179 195 184 179 178 169 166 162 160 160 162 162 169 181 166 148 151 163
228 224 225 219 213 238 212 225 269 214 228 233 222 213 202 190 182 181 181 182 180 176 174 173 170 172 172 173 175 178 182 180 163 157 162 171 169 169 165 163 162 163 165 168 174 168 162 162 167
202 122 93 151 168 238 211 200 263 216 222 222 216 213 204 189 181 179 177 170 170 170 169 169 170 176 177 179 182 186 185 174 166 167 173 177 174 175 170 166 167 169 169 172 177 173 171 171 153
145 129 283 275 230 240 193 201 245 236 226 206 203 204 198 182 175 173 169 170 171 171 172 174 175 180 181 182 187 192 191 183 182 179 180 179 182 193 191 184 178 177 174 169 166 165 177 175 167
210 173 184 212 228 258 207 220 246 257 251 153 156 167 159 170 176 178 179 177 179 178 177 178 181 183 182 183 189 191 186 186 191 187 184 188 193 194 192 187 182 178 172 168 162 163 178 168 171
185 204 186 170 218 239 242 258 298 357 46 73 104 111 145 178 178 179 178 176 177 180 183 184 183 182 183 183 182 186 184 186 186 182 179 181 181 185 182 180 176 172 168 165 161 175 177 166 173
176 161 134 172 202 237 256 241 236 230 236 232 164 181 217 193 178 173 174 175 179 180 182 181 180 182 181 181 182 185 185 183 179 177 178 177 178 174 173 169 167 166 160 165 161 163 163 159 177
164 173 184 189 197 201 246 260 244 211 207 204 223 220 216 182 183 179 176 175 168 164 169 174 178 173 173 179 178 175 180 178 177 180 182 178 175 171 172 168 167 167 166 163 162 167 165 167 178
187 188 168 194 228 206 221 264 355 16 42 76 43 21 10 37 58 147 152 145 148 159 169 174 176 177 178 178 174 173 172 174 176 180 179 177 174 172 169 163 167 173 174 171 171 173 175 177 185
Height
1508 1509 1510 1512 1516 1527 1528 1520 1513 1510 1510 1510 1509 1509 1511 1516 1520 1527 1525 1524 1527 1529 1531 1533 1534 1535 1536 1536 1537 1537 1538 1538 1538 1539 1539 1539 1539 1540 1539 1539 1539 1539 1539 1539 1540 1540 1540 1540 1540
1507 1508 1511 1511 1521 1531 1527 1516 1512 1508 1508 1509 1509 1510 1512 1516 1517 1520 1521 1524 1526 1529 1531 1532 1534 1535 1535 1536 1537 1537 1538 1538 1539 1539 1539 1539 1539 1540 1539 1539 1540 1540 1540 1540 1540 1541 1541 1541 1541
1506 1508 1510 1513 1522 1524 1518 1510 1508 1506 1507 1507 1509 1511 1513 1515 1517 1518 1520 1523 1526 1528 1530 1532 1533 1534 1535 1536 1537 1537 1538 1538 1539 1539 1539 1539 1539 1539 1539 1539 1540 1540 1540 1540 1541 1541 1541 1541 1542
1506 1508 1509 1516 1517 1512 1508 1505 1505 1505 1506 1507 1508 1512 1514 1517 1517 1518 1520 1523 1525 1527 1529 1531 1533 1534 1535 1535 1536 1537 1538 1538 1539 1539 1539 1539 1539 1539 1539 1539 1540 1540 1540 1540 1541 1541 1541 1542 1542
1504 1505 1513 1518 1513 1508 1504 1503 1503 1504 1505 1506 1507 1511 1514 1516 1517 1518 1520 1522 1524 1526 1529 1531 1532 1533 1534 1535 1536 1536 1537 1538 1538 1539 1539 1539 1539 1539 1539 1539 1539 1540 1540 1540 1541 1541 1541 1542 1542
1503 1505 1516 1516 1509 1504 1502 1502 1502 1503 1504 1505 1506 1510 1513 1515 1516 1518 1520 1522 1524 1526 1528 1530 1531 1533 1534 1534 1535 1536 1537 1537 1538 1538 1538 1539 1539 1539 1539 1539 1539 1539 1540 1540 1541 1541 1541 1542 1542
1502 1506 1510 1508 1507 1504 1500 1500 1501 1501 1502 1504 1504 1509 1512 1514 1516 1517 1520 1522 1524 1526 1527 1529 1530 1531 1533 1534 1534 1535 1536 1536 1537 1537 1538 1538 1538 1538 1538 1538 1539 1539 1539 1540 1540 1541 1541 1542 1542
1498 1503 1505 1505 1503 1500 1497 1498 1498 1499 1501 1503 1504 1505 1508 1511 1514 1517 1519 1521 1523 1525 1526 1528 1529 1530 1531 1532 1534 1534 1535 1536 1536 1537 1537 1537 1538 1538 1538 1538 1538 1539 1539 1539 1540 1540 1541 1541 1542
1497 1504 1503 1499 1498 1496 1494 1496 1496 1498 1499 1500 1501 1502 1504 1508 1511 1515 1517 1519 1522 1523 1525 1526 1528 1529 1530 1531 1532 1533 1534 1534 1535 1535 1536 1536 1537 1537 1537 1537 1538 1538 1538 1539 1539 1540 1540 1541 1542
1494 1500 1494 1492 1491 1492 1492 1493 1494 1497 1498 1499 1500 1501 1503 1506 1508 1511 1513 1515 1518 1520 1522 1524 1526 1527 1529 1530 1531 1532 1533 1533 1534 1534 1535 1535 1536 1536 1536 1537 1537 1537 1537 1538 1538 1539 1540 1540 1541
1490 1492 1489 1489 1489 1490 1491 1492 1493 1494 1496 1495 1496 1498 1501 1504 1506 1508 1510 1513 1515 1518 1520 1522 1524 1525 1527 1528 1529 1530 1531 1532 1533 1533 1534 1534 1534 1535 1535 1536 1536 1536 1537 1537 1538 1538 1539 1540 1540
1488 1487 1487 1488 1489 1489 1490 1491 1492 1491 1491 1492 1494 1495 1497 1500 1503 1505 1508 1510 1513 1516 1518 1520 1521 1523 1525 1526 1527 1528 1529 1530 1531 1532 1532 1533 1533 1534 1534 1534 1535 1535 1536 1536 1537 1537 1538 1539 1539
1486 1486 1486 1487 1488 1488 1489 1489 1490 1489 1490 1491 1492 1494 1495 1497 1500 1503 1506 1508 1511 1513 1515 1517 1519 1521 1523 1524 1525 1526 1527 1528 1529 1530 1531 1531 1532 1532 1533 1533 1534 1534 1535 1535 1536 1536 1537 1538 1538
1484 1485 1485 1486 1486 1487 1488 1488 1488 1486 1487 1489 1490 1491 1493 1495 1497 1500 1503 1505 1507 1510 1512 1514 1516 1518 1520 1522 1523 1524 1525 1526 1527 1528 1529 1530 1531 1531 1531 1532 1532 1533 1534 1534 1535 1535 1536 1536 1537
1483 1485 1485 1483 1484 1485 1487 1487 1484 1483 1485 1486 1487 1488 1490 1492 1494 1496 1498 1501 1504 1506 1509 1511 1513 1516 1518 1520 1521 1522 1523 1524 1525 1526 1527 1528 1529 1529 1530 1530 1531 1531 1532 1533 1533 1534 1535 1535 1536
1483 1486 1487 1481 1481 1482 1488 1484 1479 1480 1481 1482 1484 1485 1487 1489 1491 1493 1496 1498 1501 1503 1506 1508 1511 1513 1515 1517 1519 1520 1521 1522 1523 1524 1525 1526 1526 1527 1528 1528 1529 1530 1530 1531 1532 1532 1533 1533 1534
1485 1487 1484 1481 1478 1479 1482 1480 1476 1476 1477 1478 1480 1481 1483 1485 1488 1490 1492 1495 1497 1500 1502 1505 1507 1509 1512 1514 1516 1517 1518 1520 1521 1521 1522 1523 1524 1525 1526 1527 1527 1528 1529 1529 1530 1531 1531 1532 1532
1483 1484 1481 1479 1475 1477 1478 1475 1473 1473 1474 1474 1475 1477 1479 1480 1482 1486 1488 1491 1494 1497 1499 1502 1504 1506 1508 1511 1512 1514 1515 1516 1518 1518 1520 1521 1522 1523 1524 1524 1525 1526 1527 1527 1528 1529 1530 1530 1530
1475 1477 1477 1474 1472 1474 1474 1472 1470 1470 1471 1471 1471 1473 1474 1476 1479 1482 1484 1487 1490 1493 1495 1498 1500 1502 1504 1506 1507 1509 1511 1512 1514 1515 1517 1518 1519 1520 1521 1522 1523 1523 1524 1525 1526 1527 1527 1528 1529
1474 1475 1475 1473 1471 1472 1472 1469 1467 1466 1466 1466 1467 1468 1470 1472 1475 1477 1480 1483 1485 1488 1491 1493 1496 1498 1500 1502 1504 1506 1508 1509 1511 1512 1514 1515 1516 1517 1518 1519 1520 1521 1522 1523 1523 1524 1525 1526 1527
1471 1472 1472 1473 1471 1470 1472 1470 1466 1463 1463 1463 1463 1464 1465 1467 1469 1472 1475 1478 1481 1484 1486 1489 1492 1494 1497 1499 1501 1503 1505 1506 1507 1508 1510 1511 1513 1514 1515 1516 1517 1518 1519 1520 1521 1522 1522 1523 1525
1468 1466 1467 1469 1475 1476 1473 1475 1463 1462 1461 1460 1460 1461 1461 1464 1466 1468 1471 1474 1477 1479 1483 1485 1488 1491 1493 1495 1497 1498 1499 1500 1502 1504 1506 1508 1509 1511 1512 1513 1514 1515 1516 1517 1518 1519 1520 1521 1521
1463 1463 1465 1467 1471 1475 1473 1476 1464 1461 1460 1458 1457 1457 1458 1460 1462 1464 1467 1469 1473 1476 1479 1481 1484 1487 1489 1491 1493 1495 1496 1498 1500 1501 1503 1504 1506 1507 1508 1510 1511 1512 1513 1514 1515 1516 1517 1518 1519
1461 1463 1466 1469 1472 1473 1467 1473 1463 1460 1454 1453 1454 1454 1455 1457 1459 1462 1464 1467 1470 1473 1475 1478 1480 1483 1485 1487 1489 1491 1493 1494 1496 1497 1499 1500 1502 1503 1504 1506 1507 1508 1509 1511 1512 1513 1514 1515 1516
1461 1466 1471 1471 1472 1466 1462 1464 1458 1453 1450 1449 1450 1451 1452 1454 1456 1459 1461 1463 1466 1468 1471 1474 1476 1479 1481 1484 1485 1487 1489 1491 1492 1493 1495 1496 1498 1499 1500 1501 1503 1504 1506 1507 1509 1509 1511 1512 1513
1461 1461 1468 1470 1469 1465 1463 1461 1454 1450 1448 1447 1448 1450 1451 1452 1454 1456 1458 1460 1462 1465 1467 1469 1472 1474 1477 1479 1481 1484 1486 1487 1489 1490 1492 1493 1494 1495 1497 1498 1499 1501 1502 1504 1505 1506 1507 1508 1509
1459 1461 1461 1467 1469 1469 1464 1459 1454 1449 1448 1448 1449 1449 1449 1451 1452 1454 1456 1458 1460 1462 1464 1466 1468 1471 1473 1475 1477 1480 1482 1483 1485 1487 1489 1490 1491 1492 1493 1494 1495 1497 1498 1500 1501 1502 1503 1505 1505
1457 1459 1464 1465 1465 1463 1459 1458 1455 1451 1450 1449 1449 1449 1449 1449 1450 1452 1454 1455 1457 1459 1461 1463 1465 1467 1469 1472 1474 1476 1478 1480 1482 1483 1484 1486 1487 1488 1489 1490 1491 1492 1494 1496 1497 1498 1499 1501 1502
1458 1460 1460 1462 1462 1461 1462 1456 1449 1448 1447 1448 1448 1448 1448 1448 1449 1450 1451 1453 1455 1457 1458 1460 1462 1464 1466 1468 1470 1472 1474 1476 1478 1479 1481 1482 1483 1485 1485 1486 1487 1488 1490 1491 1493 1494 1495 1497 1498
1455 1457 1460 1462 1462 1462 1460 1457 1449 1448 1448 1448 1449 1449 1448 1448 1448 1449 1450 1451 1453 1454 1456 1458 1459 1461 1463 1465 1467 1469 1471 1473 1474 1475 1477 1478 1480 1481 1482 1483 1484 1485 1486 1488 1489 1490 1491 1493 1494